Regional Weather Roundup
Issued by NWS Green Bay, WI

Home | Current Version | Previous Version | Text Only | Print | Product List | Glossary On
Versions: 1 2 3 4 5 6 7 8 9 10 11 12 13 14 15 16 17 18 19 20 21 22 23 24 25 26 27 28 29 30 31 32 33 34 35 36 37 38 39 40 41 42 43 44 45 46 47 48 49 50
000
ASUS43 KGRB 251200
RWRGRB

NORTH-CENTRAL AND NORTHEAST WISCONSIN REGIONAL WEATHER ROUNDUP
NATIONAL WEATHER SERVICE GREEN BAY WI
700 AM CDT SAT MAR 25 2017

WIZ005-009-010>012-018-019-251300-
NORTH CENTRAL WISCONSIN

CITY           SKY/WX    TMP DP  RH WIND       PRES   REMARKS
IRONWOOD       CLOUDY    32  29  88 NE6       30.27R
MANITOWISH WTR NOT AVBL
ARBOR VITAE    NOT AVBL
EAGLE RIVER    NOT AVBL
LAND O LAKES   NOT AVBL
RHINELANDER    CLOUDY    34  30  85 E12       30.23R
PHILLIPS       NOT AVBL
ANTIGO         NOT AVBL
TOMAHAWK       NOT AVBL
MERRILL        NOT AVBL
$$

WIZ013-073-251300-
NORTHEAST WISCONSIN

CITY           SKY/WX    TMP DP  RH WIND       PRES   REMARKS
IRON MOUNTAIN  CLOUDY    33  28  81 N5        30.26R
MARINETTE        N/A    N/A N/A N/A MISG        N/A
$$

WIZ017-030-035>037-045-251300-
CENTRAL WISCONSIN

CITY           SKY/WX    TMP DP  RH WIND       PRES   REMARKS
MEDFORD        NOT AVBL
WAUSAU         CLOUDY    34  30  85 NE14      30.19S
MOSINEE        CLOUDY    34  32  93 NE14G20   30.19S
MARSHFIELD     CLOUDY    34  30  85 NE15G23   30.16S
WISC RAPIDS    CLOUDY    35  32  88 E14G21    30.17S
STEVENS POINT  NOT AVBL
WAUPACA        NOT AVBL
SHAWANO        NOT AVBL
CLINTONVILLE   NOT AVBL
WAUTOMA        CLOUDY    35  33  92 NE15      30.16R
$$

WIZ038-039-048-051-251300-
FOX VALLEY

CITY           SKY/WX    TMP DP  RH WIND       PRES   REMARKS
NWS GREEN BAY  CLOUDY    35  35 100 NE16      30.21R
APPLETON       CLOUDY    34  34 100 NE15G21   30.16R
OSHKOSH        CLOUDY    35  33  92 NE14      30.16R FOG
FOND DU LAC    CLOUDY    36  33  89 NE13      30.16R
$$

WIZ022-050-052-251300-
EAST CENTRAL WISCONSIN

CITY           SKY/WX    TMP DP  RH WIND       PRES   REMARKS
EPHRAIM        NOT AVBL
WASHINGTON ISL NOT AVBL
STURGEON BAY   CLOUDY    35  32  88 NE14      30.24R
MANITOWOC      NOT AVBL
SHEBOYGAN      CLOUDY    36  34  92 NE21      30.17R FOG
$$

LMZ563-521-522-541>543-251300-
LAKESHORE

STATION/POSITION TIME  TEMP    WIND        PRES    VSBY  WAVE
                       AIR SEA DIR/SP/G                  HT/PER
                 (UTC) (F)     (DEG/KT/KT) (MB)    (MI)  (FT/S)
SHEBOYGAN LKSHOR 1100   36      20/ 18/ 20 1021.7R
KEWAUNEE LKSHORE 1130   36      40/ 14/ 20 1022.5R
NORTHPORT PIER   1140   35      50/ 11/ 14 1025.1R
CHAMBERS ISLAND  1140   33      20/ 11/ 14 1024.4R
MENOMINEE LKSHOR 1130   33      20/ 17/ 20 1023.6R
$$



USA.gov is the U.S. government's official web portal to all federal, state and local government web resources and services.